Hourly Weather Bolshie Klyuchi

Today, 17 June, Thursday

Time Temperature Precipitation Wind Pressure Humidity
00:00 +18°C° 0 mm 1 mps 744 mmHg 93%
01:00 +16°C° 0 mm 1 mps 744 mmHg 93%
02:00 +15°C° 0 mm 1 mps 744 mmHg 94%
03:00 +15°C° 0 mm 2 mps 744 mmHg 95%
04:00 +15°C° 0 mm 1 mps 744 mmHg 92%
05:00 +16°C° 0 mm 1 mps 744 mmHg 89%
06:00 +16°C° 0 mm 1 mps 744 mmHg 86%
07:00 +19°C° 0 mm 1 mps 744 mmHg 75%
08:00 +21°C° 0 mm 1 mps 744 mmHg 65%
09:00 +24°C° 0 mm 2 mps 743 mmHg 55%
10:00 +25°C° 0 mm 2 mps 743 mmHg 51%
11:00 +27°C° 0 mm 2 mps 743 mmHg 46%
12:00 +29°C° 0 mm 2 mps 742 mmHg 42%
13:00 +29°C° 0 mm 2 mps 742 mmHg 42%
14:00 +29°C° 0 mm 3 mps 742 mmHg 43%
15:00 +30°C° 0 mm 3 mps 741 mmHg 41%
16:00 +28°C° 0 mm 2 mps 741 mmHg 53%
17:00 +26°C° 0 mm 2 mps 741 mmHg 64%
18:00 +24°C° 0 mm 1 mps 741 mmHg 76%
19:00 +22°C° 0 mm 1 mps 741 mmHg 80%
20:00 +19°C° 0 mm 0 mps 741 mmHg 84%
21:00 +18°C° 0 mm 0 mps 741 mmHg 89%
22:00 +17°C° 0 mm 0 mps 741 mmHg 89%
23:00 +17°C° 0 mm 0 mps 741 mmHg 89%

Tomorrow, 18 June, Friday

Time Temperature Precipitation Wind Pressure Humidity
00:00 +19°C° 0 mm 1 mps 741 mmHg 89%
01:00 +18°C° 0 mm 1 mps 740 mmHg 90%
02:00 +16°C° 0 mm 1 mps 740 mmHg 91%
03:00 +16°C° 0 mm 1 mps 740 mmHg 93%
04:00 +16°C° 0 mm 1 mps 740 mmHg 91%
05:00 +18°C° 0 mm 1 mps 740 mmHg 88%
06:00 +18°C° 0 mm 1 mps 740 mmHg 86%
07:00 +19°C° 0 mm 1 mps 740 mmHg 78%
08:00 +20°C° 0 mm 2 mps 740 mmHg 69%
09:00 +21°C° 0 mm 2 mps 739 mmHg 61%
10:00 +21°C° 0.1 mm 2 mps 739 mmHg 62%
11:00 +21°C° 0.1 mm 3 mps 739 mmHg 64%
12:00 +21°C° 0.1 mm 3 mps 739 mmHg 66%
13:00 +20°C° 0.8 mm 2 mps 739 mmHg 76%
14:00 +19°C° 0.8 mm 1 mps 739 mmHg 86%
15:00 +16°C° 0.8 mm 0 mps 739 mmHg 96%
16:00 +18°C° 1.7 mm 1 mps 739 mmHg 97%
17:00 +18°C° 1.7 mm 1 mps 739 mmHg 97%
18:00 +16°C° 1.7 mm 1 mps 740 mmHg 98%
19:00 +16°C° 0.1 mm 1 mps 740 mmHg 97%
20:00 +16°C° 0.1 mm 1 mps 740 mmHg 97%
21:00 +15°C° 0.1 mm 1 mps 740 mmHg 97%
22:00 +15°C° 0 mm 1 mps 740 mmHg 97%
23:00 +15°C° 0 mm 1 mps 740 mmHg 97%

Day after tomorrow, 19 June, Saturday

Time Temperature Precipitation Wind Pressure Humidity
00:00 +15°C° 0 mm 1 mps 740 mmHg 97%
01:00 +15°C° 0 mm 1 mps 740 mmHg 97%
02:00 +15°C° 0 mm 1 mps 740 mmHg 97%
03:00 +15°C° 0 mm 1 mps 740 mmHg 97%
04:00 +15°C° 0 mm 1 mps 740 mmHg 97%
05:00 +15°C° 0 mm 1 mps 740 mmHg 96%
06:00 +15°C° 0 mm 1 mps 740 mmHg 96%
07:00 +16°C° 0.6 mm 1 mps 741 mmHg 96%
08:00 +16°C° 0.6 mm 1 mps 741 mmHg 96%
09:00 +16°C° 0.6 mm 2 mps 741 mmHg 96%
10:00 +16°C° 0.4 mm 2 mps 741 mmHg 95%
11:00 +16°C° 0.4 mm 2 mps 741 mmHg 95%
12:00 +16°C° 0.4 mm 2 mps 741 mmHg 94%
13:00 +18°C° 0.1 mm 1 mps 741 mmHg 90%
14:00 +18°C° 0.1 mm 1 mps 740 mmHg 86%
15:00 +19°C° 0.1 mm 1 mps 740 mmHg 82%
16:00 +17°C° 0.1 mm 2 mps 740 mmHg 83%
17:00 +16°C° 0.1 mm 2 mps 741 mmHg 84%
18:00 +16°C° 0.1 mm 2 mps 741 mmHg 85%
19:00 +15°C° 0 mm 2 mps 741 mmHg 85%
20:00 +15°C° 0 mm 1 mps 741 mmHg 86%
21:00 +14°C° 0 mm 1 mps 742 mmHg 87%
22:00 +14°C° 0.2 mm 1 mps 742 mmHg 90%
23:00 +13°C° 0.2 mm 1 mps 742 mmHg 93%

20 June, Sunday

Time Temperature Precipitation Wind Pressure Humidity
00:00 +13°C° 0.2 mm 1 mps 742 mmHg 96%
01:00 +12°C° 0.2 mm 1 mps 742 mmHg 96%
02:00 +12°C° 0.2 mm 1 mps 742 mmHg 97%
03:00 +12°C° 0.2 mm 1 mps 742 mmHg 97%
04:00 +12°C° 0 mm 1 mps 742 mmHg 97%
05:00 +12°C° 0 mm 1 mps 742 mmHg 96%
06:00 +12°C° 0 mm 1 mps 742 mmHg 96%
07:00 +13°C° 0 mm 1 mps 742 mmHg 93%
08:00 +13°C° 0 mm 1 mps 743 mmHg 90%
09:00 +14°C° 0 mm 1 mps 743 mmHg 87%
10:00 +14°C° 0 mm 1 mps 743 mmHg 84%
11:00 +15°C° 0 mm 1 mps 743 mmHg 80%
12:00 +15°C° 0 mm 1 mps 743 mmHg 77%
13:00 +18°C° 0 mm 1 mps 743 mmHg 70%
14:00 +19°C° 0 mm 1 mps 742 mmHg 63%
15:00 +21°C° 0 mm 1 mps 742 mmHg 55%
16:00 +21°C° 0 mm 1 mps 742 mmHg 59%
17:00 +20°C° 0 mm 1 mps 742 mmHg 62%
18:00 +20°C° 0 mm 1 mps 742 mmHg 65%
19:00 +18°C° 0 mm 1 mps 742 mmHg 72%
20:00 +15°C° 0 mm 1 mps 743 mmHg 80%
21:00 +12°C° 0 mm 0 mps 743 mmHg 88%
22:00 +12°C° 0 mm 0 mps 743 mmHg 90%
23:00 +13°C° 0 mm 1 mps 744 mmHg 92%

21 June, Monday

Time Temperature Precipitation Wind Pressure Humidity
00:00 +12°C° 0 mm 1 mps 744 mmHg 94%
01:00 +12°C° 0 mm 1 mps 744 mmHg 93%
02:00 +11°C° 0 mm 0 mps 744 mmHg 93%
03:00 +11°C° 0 mm 0 mps 744 mmHg 92%
04:00 +11°C° 0 mm 0 mps 745 mmHg 92%
05:00 +12°C° 0 mm 0 mps 745 mmHg 91%
06:00 +12°C° 0 mm 0 mps 745 mmHg 90%
07:00 +14°C° 0 mm 0 mps 745 mmHg 84%
08:00 +15°C° 0 mm 0 mps 745 mmHg 78%
09:00 +19°C° 0 mm 1 mps 745 mmHg 72%
10:00 +20°C° 0 mm 1 mps 745 mmHg 66%
11:00 +21°C° 0 mm 1 mps 745 mmHg 61%
12:00 +22°C° 0 mm 1 mps 745 mmHg 56%
13:00 +23°C° 0 mm 2 mps 745 mmHg 54%
14:00 +23°C° 0 mm 2 mps 744 mmHg 53%
15:00 +24°C° 0 mm 3 mps 744 mmHg 51%
16:00 +23°C° 0 mm 2 mps 744 mmHg 56%
17:00 +23°C° 0 mm 2 mps 744 mmHg 60%
18:00 +21°C° 0 mm 2 mps 744 mmHg 65%
19:00 +20°C° 0 mm 1 mps 745 mmHg 74%
20:00 +18°C° 0 mm 1 mps 745 mmHg 83%
21:00 +14°C° 0 mm 0 mps 745 mmHg 92%
22:00 +14°C° 0 mm 0 mps 746 mmHg 93%
23:00 +13°C° 0 mm 0 mps 746 mmHg 94%

22 June, Tuesday

Time Temperature Precipitation Wind Pressure Humidity
00:00 +12°C° 0 mm 0 mps 746 mmHg 94%
01:00 +12°C° 0 mm 0 mps 746 mmHg 95%
02:00 +12°C° 0 mm 0 mps 747 mmHg 95%
03:00 +11°C° 0 mm 0 mps 747 mmHg 96%
04:00 +12°C° 0 mm 0 mps 747 mmHg 95%
05:00 +12°C° 0 mm 0 mps 747 mmHg 93%
06:00 +13°C° 0 mm 0 mps 747 mmHg 92%
07:00 +16°C° 0 mm 0 mps 747 mmHg 81%
08:00 +18°C° 0 mm 0 mps 747 mmHg 70%
09:00 +21°C° 0 mm 0 mps 747 mmHg 59%
10:00 +25°C° 0 mm 1 mps 747 mmHg 54%
11:00 +26°C° 0 mm 1 mps 746 mmHg 48%
12:00 +27°C° 0 mm 1 mps 746 mmHg 43%
13:00 +27°C° 0 mm 2 mps 746 mmHg 43%
14:00 +27°C° 0 mm 2 mps 745 mmHg 43%
15:00 +28°C° 0 mm 3 mps 745 mmHg 43%
16:00 +26°C° 0 mm 2 mps 745 mmHg 50%
17:00 +25°C° 0 mm 2 mps 745 mmHg 58%
18:00 +24°C° 0 mm 1 mps 745 mmHg 65%
19:00 +22°C° 0 mm 1 mps 745 mmHg 72%
20:00 +18°C° 0 mm 0 mps 745 mmHg 79%
21:00 +16°C° 0 mm 0 mps 745 mmHg 85%
22:00 +16°C° 0 mm 0 mps 745 mmHg 87%
23:00 +15°C° 0 mm 0 mps 745 mmHg 89%
Show more